Flag for Canada Weather past 2 weeks in Saint John, New Brunswick, Canada

Now
50 °F

Passing clouds.


Feels Like: 50 °F
Forecast: 55 / 75 °F
Wind: No wind

Location: Saint John

Current Time: Jul 26, 2014 at 3:17:20 AM

Latest Report: Jul 26, 2014 at 2:00 AM


Visibility: 15 mi

Pressure: 29.88 "Hg

Humidity: 100%

Dew point: 50 °F

Location of Saint JohnLocation

Historic Weather in Saint John — Graph

°F

Saint John temperature yesterday

Maximum temperature yesterday: 77 °F (at 3:00 PM)
Minimum temperature yesterday: 50 °F (at 4:00 AM)
Average temperature yesterday: 62 °F

Past Weeks' High & Low Weather Summary

 TemperatureHumidityPressure
High81 °F (Jul 19, 3:00 PM)100% (Jul 11, 6:00 AM)30.27 "Hg (Jul 11, 6:00 AM)
Low45 °F (Jul 12, 5:00 AM)34% (Jul 12, 12:00 PM)29.75 "Hg (Jul 24, 5:00 AM)
Average63 °F85%30.01 "Hg
* Reported Jul 11 2:00 AM — Jul 26 2:00 AM, Saint John, Weather by CustomWeather, © 2014

Note: Actual official high and low records may vary slightly from our data, if they occured in-between our weather recording intervals... More about our weather records

Advertising

Saint John weather history for previous 24 hours

 ConditionsComfort  
Time TempWeatherWind HumidityBarometerVisibility
2:00 AM
Jul 26
50 °FPassing clouds.No wind100%29.88 "Hg15 mi
1:00 AM52 °FClear.No wind100%29.88 "Hg15 mi
12:00 AM52 °FClear.No wind100%29.88 "Hg15 mi
11:00 PM
Jul 25
55 °FClear.3 mph94%29.88 "Hg15 mi
10:00 PM59 °FClear.2 mph88%29.87 "Hg15 mi
9:00 PM61 °FSunny.6 mph83%29.86 "Hg15 mi
8:00 PM66 °FSunny.7 mph68%29.85 "Hg15 mi
7:00 PM70 °FScattered clouds.10 mph64%29.84 "Hg15 mi
6:00 PM72 °FScattered clouds.13 mph53%29.84 "Hg15 mi
5:00 PM75 °FScattered clouds.12 mph50%29.84 "Hg15 mi
4:00 PM75 °FScattered clouds.13 mph50%29.83 "Hg15 mi
3:00 PM77 °FScattered clouds.9 mph44%29.83 "Hg15 mi
2:00 PM73 °FPartly sunny.7 mph44%29.85 "Hg15 mi
1:00 PM70 °FPartly sunny.3 mph57%29.86 "Hg15 mi
12:00 PM70 °FOvercast.3 mph60%29.87 "Hg15 mi
11:00 AM66 °FMore clouds than sun.3 mph73%29.88 "Hg15 mi
10:00 AM63 °FBroken clouds.5 mph77%29.88 "Hg15 mi
9:00 AM59 °FBroken clouds.No wind100%29.88 "Hg15 mi
8:00 AM55 °FBroken clouds.No wind100%29.88 "Hg15 mi
7:00 AM52 °FPartly sunny.2 mph100%29.86 "Hg15 mi
6:00 AM52 °FPassing clouds.2 mph100%29.86 "Hg15 mi
5:00 AM52 °FPassing clouds.No wind100%29.85 "Hg15 mi
4:00 AM50 °FFog.2 mph100%29.85 "Hg5 mi
3:00 AM52 °FFog.No wind100%29.83 "Hg5 mi
Weather by CustomWeather, © 2014

See weather overviewHow to use our weather pages